STARLINK-2711, 48673

Orbit data source: Space-Track

STARLINK-2711, 48673 is a payload satellite owned by SpaceX/Seattle (US) in LEO that was launched on Wed, 26 May 2021 UTC via an FALCON 9 launch vehicle from the Air Force Eastern Test Range (AFETR). Payload-class satellites include a variety of spacecraft equipped with specific instruments for various scientific and technological missions. These include communications satellites like Starlink; space stations such as the ISS; scientific satellites like the Hubble; Earth observation satellites from companies like Planet Labs, Umbra, and HawkEye 360; GPS; miniature CubeSats for education and research; and military/defense satellites.

Loading next visibility...
Identifier
48673, 2021-044AM
Orbit
LEO
Country
Flag of USUS
Related business
Manufacturer
SpaceX/Seattle
Mission
Operational Commercial Communications
Bus & Motor
STARLINK, Unknown motor
Mass
260 kg wet, ~248 kg dry
Launch date (UTC)
2021-05-26 (5 years ago)
Launch vehicle
FALCON 9
Launch site
Air Force Eastern Test Range (AFETR)
Object type
Payload
Rocket body
Debris
Shape & HBR
Box + 1 Pan, 10.1 m
Radar Cross Section
13.562 m², Large (>1 m²)

Expand to show TLE details & history
Last TLE update: 1 day ago

TLE from 1 day ago
0 STARLINK-2711
1 48673U 21044AM  25348.69382428  .00001864  00000-0  14401-3 0  9995
2 48673  53.0554 133.1772 0001206  90.9059 269.2068 15.06395343251030
Epoch: 2025-12-14T16:39Z
TLE epoch observation values (Epoch: 2025-12-14T16:39:06.417Z)
Latitude
-0.00005°
Longitude
159.79735°
Altitude
548.117 km
Speed
7.589 km/s
True Right ascension
08h 52m 42s
True Declination
0° 00' 00"
Sunlit
Object was in full shadow at epoch
Visualization orbit readout
Latitude
Unknown
Longitude
Unknown
Altitude
Unknown
Speed
Unknown
Apparent Right ascension
Unknown
Apparent Declination
Unknown
Sunlit
N/A
Visualization observer readout
Local Sidereal Time
18:02:54
Azimuth
Unknown
Elevation
Unknown
Doppler factor
Unknown
Orbital elements
Apogee altitude
548.332 km
Perigee altitude
546.661 km
Semi-major axis
6,925.633 km
Eccentricity
0.00012
Inclination
53.0554°
RAAN
133.1772°
Arg. of periapsis
90.9059°
True anomaly
269.19298°
Mean anomaly
269.2068°
Eccentric anomaly
269.19989°
Mean motion
3.76577 °/min
Orbital period
95.6 mins
BSTAR
0.00014401
Loading maneuver chart data...
Computing Atmospheric mass density...
Loading historical data...
Loading historical data...
Loading historical data...
Loading historical data...
Loading historical data...
Loading historical data...
Loading historical data...

Documentation

Showing up to 5 results
|